Location: Cold Norton
(51.6667°N, 0.6667°E)
Time: 16:41:48
(UTC+00:00)

Cosmos 2344 - Pass Details

Date: 18 November 2025
Orbit: 1197 x 3045 km, 63.3° (Epoch: 09 December)

Event Time Altitude Azimuth Distance (km) Brightness Sun altitude
Rises 18:21:04 0° 313° (NW) 4,163 6.9 -21.0°
Reaches altitude 10° 18:23:35 10° 314° (NW) 3,265 6.3 -21.4°
Maximum altitude 18:31:20 83° 44° (NE) 1,493 3.8 -22.6°
Enters shadow 18:38:35 21° 132° (SE) 3,249 5.3 -23.7°
